map of SHJ home
SHJ - Airport
Location
City:  Sharjah, Sharjah, United Arab Emirates
Name:Sharjah International Airport
ICAO:OMSJ
IATA:SHJ

Details
Type:Airport (Aerodrome, Airfield)
Use:Public/Civil, Military, International (customs port of entry)
Latitude:2519'43"N (25.328575)
Longitude:5531'02"E (55.517150)
Datum:WGS 1984
Elevation:111 ft (34 m)
Variation:2.10E (WMM2015 magnetic declination)
0.05 annual change
Runways:1
Longest:13320 × 148 ft (4060 × 45 m), paved

Time
Time Zone:UTC+4
Local Time:

Weather
METAR:OMSJ 240800Z 06006KT 030V100 7000 BR BKN018 24/10 Q1020
TAF:OMSJ 240459Z 2406/2512 VRB02KT 6000 NSC
BECMG 2409/2411 36010KT
BECMG 2415/2417 08005KT
BECMG 2509/2511 32010KT

Related Locations
Nearby:
Farthest:GMR: 11772 mi / 18945 km
Mangareva [Totegegie], Gambier Islands, PF

Find:

   beyond  
but within

Other Information
Maps:
NOTAMs:
Links:
Sources:

  
  • flag of United Arab Emirates
  • flag of Sharjah
  

Sectional Chart

Flight Planning
at skyvector.com

Satellite Image

Google Maps Satellite view

 

Copyright © 2004-2019 Karl L. Swartz. All rights reserved.
The Great Circle Mapper name and logo are trademarks of the Great Circle Mapper.
All other trademarks mentioned herein belong to their respective owners.
Please see credits for attibutions and further copyright information.

  Follow gcmap on Facebook Follow gcmap on Twitter Follow gcmap on Google+ GCmap on LinkedIn

hCard Microformat

Geo Microformat